Location: Sternwarte Stuttgart
(48.7670°N, 9.1830°E)
Time: 17:03:21
(UTC+02:00)

ALOS - Pass Details

Date: 24 January 2019
Orbit: 683 x 686 km, 97.8° (Epoch: 20 April)

Event Time Altitude Azimuth Distance (km) Brightness Sun altitude
Rises 06:32:41 0° 15° (NNE) 3,066 5.7 -14.8°
Reaches altitude 10° 06:34:57 10° 17° (NNE) 2,146 4.9 -14.4°
Maximum altitude 06:39:39 72° 102° (ESE) 725 2.6 -13.7°
Drops below altitude 10° 06:44:18 10° 187° (S) 2,129 4.9 -12.9°
Sets 06:46:33 0° 190° (S) 3,040 5.7 -12.6°
